[[{"header":{"parameterUnit":"m.s-1","parameterCategory":1,"la1":30.2991,"la2":30.254,"lo1":-89.0895,"lo2":-89.0444,"dy":0.0017,"dx":0.0017,"nx":28,"ny":28,"refTime":"2024-03-20T09:00:00:Z","depth":0,"parameterNumber":2,"parameterNumberName":"U-component_of_WINDS"},"data":[0,0,0,0,0,0,0,0,0,0,0,0,0,0,0,0,0,0,0,0,0,0,0,0,0,0,0,0,0,0,0,0,0,0,0,0,0,0,0,0,0,0,0,0,0,0,0,0,0,0,0,0,0,0,0,0,0,0,-3.9038,-3.9038,0,-3.8958,-3.8957,-3.8956,-3.8845,-3.8843,-3.8842,-3.884,-3.8757,-3.8757,-3.8756,0,0,0,0,0,0,0,0,0,0,0,0,0,-3.9095,-3.9095,-3.9038,-3.9037,-3.9036,-3.8958,-3.8957,-3.8956,-3.8846,-3.8843,-3.8841,-3.8839,-3.8757,-3.8757,-3.8756,0,0,0,0,0,0,0,0,0,0,0,0,0,-3.9048,-3.9094,-3.9039,-3.8972,-3.8965,-3.8958,-3.8957,-3.8956,-3.8846,-3.8843,-3.8841,-3.8838,-3.8757,-3.8757,-3.8756,-3.8808,0,0,-3.8754,-3.8754,0,0,0,0,0,0,0,0,-3.9051,-3.9046,-3.8983,-3.8977,-3.8969,-3.8909,-3.8947,-3.8906,-3.8847,-3.8891,-3.884,-3.8837,-3.881,-3.8805,-3.8796,-3.8804,-3.8801,-3.8754,-3.8753,-3.8753,-3.8753,0,0,0,0,0,0,0,-3.9054,-3.9049,-3.9007,-3.8982,-3.8974,-3.8946,-3.8936,-3.8938,-3.8867,-3.8887,-3.8879,-3.8871,-3.8805,-3.8797,-3.8793,-3.8799,-3.8754,-3.8753,-3.8753,-3.8753,-3.8845,-3.8848,0,0,0,0,0,0,-3.9068,-3.9053,-3.9009,-3.9004,-3.9004,-3.8947,-3.8936,-3.8931,-3.8867,-3.8855,-3.8874,-3.8866,-3.8799,-3.8794,-3.879,-3.8845,-3.8753,-3.8753,-3.8752,-3.8842,-3.8846,-3.8849,0,0,0,0,0,0,-3.9069,-3.9065,-3.9012,-3.9026,-3.9017,-3.8949,-3.8944,-3.8931,-3.8922,-3.8857,-3.8843,-3.8878,-3.8797,-3.8791,-3.8804,-3.8841,-3.8752,-3.8752,-3.8839,-3.8843,-3.8847,-3.8959,0,0,0,0,0,0,-3.9071,-3.9066,-3.9086,-3.9027,-3.9017,-3.9029,-3.8946,-3.8931,-3.8921,-3.8911,-3.8857,-3.8845,-3.8794,-3.8806,-3.8803,-3.8839,-3.8751,-3.8835,-3.8841,-3.8846,-3.8951,-3.8966,-3.8979,0,0,0,0,0,-3.9074,-3.912,-3.9087,-3.9083,-3.904,-3.9031,-3.9025,-3.8966,-3.8925,-3.8943,-3.8901,-3.8847,-3.8838,-3.8808,-3.8804,-3.884,-3.8833,-3.8839,-3.8845,-3.8945,-3.8963,-3.8979,0,0,0,0,0,0,-3.9185,-3.9111,-3.9074,-3.9103,-3.9074,-3.9013,-3.9035,-3.8987,-3.8969,-3.896,-3.8886,-3.8875,-3.8898,-3.887,-3.8838,-3.8886,-3.8827,-3.8833,-3.8904,-3.8921,-3.8934,-3.894,-3.8751,0,0,0,0,0,-3.9213,-3.9212,-3.9148,-3.918,-3.9167,-3.9104,-3.9098,-3.9054,-3.9021,-3.9009,-3.8967,-3.8937,-3.8927,-3.8922,-3.8909,-3.8947,-3.8933,-3.8969,-3.8983,-3.8995,-3.9001,-3.9018,-3.9033,-3.887,-3.887,-3.887,0,0,-3.927,-3.923,-3.9234,-3.9201,-3.9173,-3.9174,-3.9094,-3.9098,-3.9098,-3.9009,-3.9019,-3.8988,-3.8949,-3.8975,-3.8984,-3.8952,-3.9043,-3.9003,-3.9013,-3.9012,-3.9026,-3.9041,-3.9055,-3.8874,-3.8874,-3.8873,0,0,-3.9375,-3.9345,-3.9368,-3.9342,-3.9301,-3.9259,-3.9264,-3.921,-3.9186,-3.9195,-3.9128,-3.9126,-3.911,-3.9085,-3.9071,-3.9166,-3.9115,-3.9163,-3.9236,-3.9253,-3.9266,-3.9277,-3.931,-3.9323,-3.917,-3.917,-3.917,0,-3.9452,-3.9451,-3.9386,-3.9394,-3.9381,-3.93,-3.9323,-3.93,-3.9258,-3.9251,-3.9216,-3.9194,-3.9163,-3.9181,-3.9204,-3.9195,-3.9198,-3.9169,-3.9269,-3.9279,-3.9289,-3.932,-3.9333,-3.9176,-3.9175,-3.9175,-3.9174,0,-3.9547,-3.9547,-3.957,-3.9531,-3.952,-3.9536,-3.9473,-3.947,-3.9427,-3.9388,-3.9398,-3.9357,-3.9334,-3.9335,-3.9293,-3.9347,-3.9328,-3.9283,-3.9221,-3.9312,-3.9339,-3.9351,-3.9185,-3.9183,-3.9181,-3.9179,0,0,-3.972,-3.9644,-3.9654,-3.9635,-3.9584,-3.9582,-3.9594,-3.9571,-3.957,-3.9543,-3.9551,-3.9539,-3.9496,-3.9479,-3.9434,-3.9449,-3.9526,-3.9401,-3.9399,-3.9425,-3.9582,-3.9617,-3.9632,-3.9492,-3.9494,-3.9495,-3.9585,0,-3.9815,-3.9831,-3.9772,-3.9803,-3.9801,-3.9724,-3.9734,-3.9703,-3.9667,-3.966,-3.9619,-3.9612,-3.9556,-3.9545,-3.9557,-3.9514,-3.9556,-3.9507,-3.9497,-3.9498,-3.951,-3.9646,-3.9683,-3.977,-3.9595,-3.9597,-3.9598,0,-3.9929,-3.9908,-3.9938,-3.9885,-3.9882,-3.9892,-3.9866,-3.9861,-3.9824,-3.9797,-3.9778,-3.9725,-3.9732,-3.9673,-3.968,-3.9648,-3.9641,-3.9619,-3.9621,-3.9618,-3.9554,-3.9647,-3.9796,-3.9809,-3.9615,-3.9614,-3.9612,0,-4.0052,-4.0032,-4.0047,-4.0033,-3.9971,-3.998,-3.9954,-3.9915,-3.9905,-3.9882,-3.9875,-3.9853,-3.9842,-3.9826,-3.9768,-3.9731,-3.9782,-3.9719,-3.9759,-3.9761,-3.9773,-3.9773,-3.9924,-3.9769,-3.9769,-3.9769,-3.9768,0,-4.0165,-4.0186,-4.0101,-4.0111,-4.0132,-4.0064,-4.0087,-4.0054,-4.002,-4.0021,-3.9952,-3.9955,-3.9879,-3.9872,-3.9827,-3.984,-3.9835,-3.9812,-3.98,-3.9819,-3.9822,-3.9813,-3.9805,-3.9772,-3.9771,-3.9771,-3.977,0,-4.0306,-4.025,-4.0262,-4.0202,-4.0187,-4.0206,-4.0154,-4.016,-4.0119,-4.0121,-4.0118,-4.0053,-4.0042,-3.9983,-3.9958,-3.9928,-3.9956,-3.9932,-3.9969,-3.9961,-4.0004,-4.0001,-4.0153,-4.017,-4.0006,-4.0007,-4.0009,0,-4.0382,-4.0397,-4.0338,-4.0334,-4.0312,-4.0306,-4.0296,-4.0229,-4.0221,-4.018,-4.019,-4.0174,-4.0157,-4.0143,-4.0093,-4.0073,-4.0048,-4.0103,-4.0044,-4.0062,-4.0048,-4.0048,-4.0049,-4.0115,-4.0118,-4.0119,-4.0121,0,-4.0522,-4.0494,-4.0481,-4.0459,-4.0448,-4.0428,-4.0402,-4.0403,-4.0329,-4.0323,-4.0311,-4.0298,-4.0272,-4.0256,-4.0228,-4.02,-4.0148,-4.0139,-4.0147,-4.0166,-4.0187,-4.0176,-4.0003,-4.0136,-4.0135,-4.0134,-4.0133,-4.0132,-4.0633,-4.0642,-4.0602,-4.0591,-4.0565,-4.0543,-4.0545,-4.0504,-4.0493,-4.0467,-4.0428,-4.0421,-4.0382,-4.0339,-4.0316,-4.0309,-4.0279,-4.0291,-4.0294,-4.0298,-4.0307,-4.0189,-4.0304,-4.0303,-4.0302,-4.0302,-4.0302,0,-4.0769,-4.074,-4.073,-4.0697,-4.0687,-4.0639,-4.0608,-4.0603,-4.0598,-4.0567,-4.0552,-4.0537,-4.0521,-4.047,-4.0449,-4.0453,-4.0428,-4.0449,-4.0448,-4.0443,-4.0335,-4.033,-4.0469,-4.0469,-4.0469,-4.0469,-4.0469,-4.0469,-4.0839,-4.0852,-4.0819,-4.0818,-4.0787,-4.078,-4.0767,-4.0746,-4.0721,-4.0708,-4.0694,-4.0661,-4.0621,-4.0596,-4.0579,-4.0564,-4.0559,-4.0588,-4.0566,-4.0466,-4.045,-4.0435,-4.043,-4.0588,-4.0588,-4.0673,-4.0674,-4.0675]},{"header":{"parameterUnit":"m.s-1","parameterCategory":1,"la1":30.2991,"la2":30.254,"lo1":-89.0895,"lo2":-89.0444,"dy":0.0017,"dx":0.0017,"nx":28,"ny":28,"refTime":"2024-03-20T09:00:00:Z","depth":0,"parameterNumber":3,"parameterNumberName":"V-component_of_WINDS"},"data":[0,0,0,0,0,0,0,0,0,0,0,0,0,0,0,0,0,0,0,0,0,0,0,0,0,0,0,0,0,0,0,0,0,0,0,0,0,0,0,0,0,0,0,0,0,0,0,0,0,0,0,0,0,0,0,0,0,0,-2.2113,-2.2113,0,-2.2147,-2.2147,-2.2147,-2.2129,-2.2128,-2.2128,-2.2127,-2.2162,-2.2163,-2.2165,0,0,0,0,0,0,0,0,0,0,0,0,0,-2.2033,-2.2034,-2.2113,-2.2113,-2.2114,-2.2147,-2.2147,-2.2148,-2.213,-2.2128,-2.2127,-2.2126,-2.2161,-2.2163,-2.2165,0,0,0,0,0,0,0,0,0,0,0,0,0,-2.2067,-2.2035,-2.2113,-2.2109,-2.2109,-2.2147,-2.2147,-2.2148,-2.213,-2.2128,-2.2127,-2.2126,-2.216,-2.2163,-2.2166,-2.221,0,0,-2.2174,-2.2175,0,0,0,0,0,0,0,0,-2.2065,-2.207,-2.2109,-2.2109,-2.2109,-2.2132,-2.2132,-2.2168,-2.213,-2.2122,-2.2127,-2.2125,-2.2153,-2.2156,-2.2166,-2.2211,-2.2213,-2.2174,-2.2176,-2.2177,-2.2178,0,0,0,0,0,0,0,-2.2063,-2.2068,-2.2126,-2.2109,-2.211,-2.2105,-2.2108,-2.2138,-2.2145,-2.2122,-2.2121,-2.2125,-2.2153,-2.2163,-2.2166,-2.2213,-2.2174,-2.2176,-2.2178,-2.2179,-2.2294,-2.2296,0,0,0,0,0,0,-2.2061,-2.2067,-2.2125,-2.2127,-2.2083,-2.2108,-2.2111,-2.2126,-2.2144,-2.2146,-2.2127,-2.2124,-2.2159,-2.2163,-2.2168,-2.2218,-2.2177,-2.2179,-2.2181,-2.2293,-2.2295,-2.2296,0,0,0,0,0,0,-2.2059,-2.2066,-2.2124,-2.2097,-2.2104,-2.211,-2.2127,-2.2128,-2.2138,-2.2147,-2.2148,-2.2136,-2.2158,-2.2164,-2.2199,-2.2219,-2.2181,-2.2183,-2.2291,-2.2293,-2.2295,-2.232,0,0,0,0,0,0,-2.2057,-2.2065,-2.2082,-2.2097,-2.2105,-2.2155,-2.2129,-2.2129,-2.2142,-2.214,-2.2156,-2.2158,-2.2158,-2.2195,-2.2201,-2.2222,-2.2185,-2.2289,-2.2292,-2.2295,-2.2318,-2.2323,-2.2328,0,0,0,0,0,-2.2054,-2.2089,-2.2083,-2.209,-2.2126,-2.2156,-2.216,-2.2159,-2.2144,-2.2161,-2.2167,-2.2157,-2.2216,-2.2199,-2.2206,-2.2227,-2.2288,-2.2291,-2.2295,-2.2316,-2.2322,-2.2328,0,0,0,0,0,0,-2.2076,-2.209,-2.2085,-2.2125,-2.2139,-2.2153,-2.2174,-2.2167,-2.2186,-2.2182,-2.2181,-2.2185,-2.222,-2.2228,-2.2208,-2.227,-2.225,-2.2255,-2.2263,-2.227,-2.2275,-2.2271,-2.2187,0,0,0,0,0,-2.2086,-2.2109,-2.212,-2.2155,-2.2162,-2.2167,-2.218,-2.2178,-2.2192,-2.2198,-2.2207,-2.2221,-2.2243,-2.2257,-2.2278,-2.232,-2.2322,-2.2338,-2.2343,-2.2347,-2.2351,-2.2371,-2.2378,-2.2307,-2.2307,-2.2307,0,0,-2.2106,-2.2117,-2.2131,-2.216,-2.217,-2.2193,-2.2172,-2.2198,-2.2214,-2.2202,-2.2235,-2.2242,-2.2258,-2.2296,-2.2313,-2.2303,-2.2371,-2.2351,-2.2355,-2.2356,-2.2375,-2.2382,-2.2388,-2.2309,-2.2309,-2.2308,0,0,-2.2154,-2.2165,-2.2194,-2.2205,-2.2221,-2.2224,-2.2231,-2.2246,-2.2249,-2.2282,-2.2273,-2.2293,-2.2331,-2.2342,-2.2353,-2.2404,-2.2395,-2.2411,-2.2437,-2.2457,-2.2462,-2.2467,-2.2483,-2.2489,-2.2415,-2.2415,-2.2415,0,-2.2177,-2.2211,-2.221,-2.2236,-2.2248,-2.2238,-2.2266,-2.2277,-2.23,-2.2308,-2.2297,-2.2343,-2.2353,-2.2392,-2.2405,-2.2415,-2.2421,-2.2408,-2.2462,-2.2466,-2.2471,-2.2486,-2.2492,-2.2417,-2.2417,-2.2417,-2.2417,0,-2.2237,-2.2261,-2.2283,-2.2303,-2.2318,-2.2345,-2.2348,-2.2363,-2.236,-2.2364,-2.2397,-2.2409,-2.2431,-2.244,-2.2438,-2.2479,-2.2472,-2.2462,-2.2441,-2.2479,-2.2493,-2.2499,-2.2419,-2.2419,-2.2418,-2.2418,0,0,-2.2299,-2.2318,-2.2326,-2.2334,-2.2351,-2.237,-2.2397,-2.2417,-2.2429,-2.2446,-2.2466,-2.2498,-2.2488,-2.25,-2.2499,-2.2517,-2.2554,-2.2504,-2.2504,-2.2511,-2.2597,-2.2603,-2.261,-2.2549,-2.2551,-2.2551,-2.2595,0,-2.2345,-2.2391,-2.2391,-2.2433,-2.2454,-2.2445,-2.2467,-2.248,-2.2485,-2.2503,-2.2508,-2.253,-2.2516,-2.2523,-2.254,-2.2546,-2.2571,-2.2543,-2.2567,-2.2568,-2.2561,-2.2618,-2.2624,-2.2665,-2.2601,-2.2602,-2.2602,0,-2.2406,-2.2422,-2.2466,-2.2479,-2.2488,-2.2508,-2.2526,-2.2545,-2.2559,-2.2561,-2.2574,-2.257,-2.2596,-2.2576,-2.2611,-2.2592,-2.2603,-2.2607,-2.2608,-2.2609,-2.2586,-2.2617,-2.2678,-2.2683,-2.2612,-2.2611,-2.261,0,-2.2443,-2.2477,-2.2507,-2.2515,-2.2531,-2.2545,-2.2553,-2.2565,-2.2577,-2.2594,-2.2601,-2.2621,-2.2631,-2.2646,-2.2647,-2.2633,-2.2682,-2.2663,-2.2683,-2.2683,-2.2692,-2.269,-2.2752,-2.2703,-2.2703,-2.2702,-2.2702,0,-2.2493,-2.252,-2.2523,-2.2541,-2.2571,-2.257,-2.2599,-2.2605,-2.2617,-2.2635,-2.263,-2.2648,-2.2649,-2.2667,-2.2669,-2.2696,-2.2702,-2.2703,-2.2702,-2.2702,-2.2701,-2.2707,-2.2703,-2.2704,-2.2704,-2.2703,-2.2703,0,-2.2539,-2.2542,-2.2574,-2.2586,-2.259,-2.2611,-2.2621,-2.2638,-2.2642,-2.2666,-2.2672,-2.2678,-2.2699,-2.2702,-2.2727,-2.2728,-2.276,-2.2758,-2.2755,-2.2754,-2.2772,-2.277,-2.2838,-2.2846,-2.2793,-2.2794,-2.2794,0,-2.2569,-2.2589,-2.2604,-2.2616,-2.2623,-2.2643,-2.2655,-2.2656,-2.2669,-2.2686,-2.27,-2.2721,-2.2737,-2.277,-2.2777,-2.2796,-2.2792,-2.2815,-2.2795,-2.2793,-2.279,-2.2787,-2.2788,-2.2818,-2.2819,-2.2819,-2.282,0,-2.2623,-2.2623,-2.2641,-2.2658,-2.2673,-2.2687,-2.2701,-2.2711,-2.2713,-2.2728,-2.2749,-2.2761,-2.2786,-2.2806,-2.2824,-2.2831,-2.2825,-2.2826,-2.2831,-2.283,-2.2826,-2.2825,-2.2762,-2.2824,-2.2823,-2.2823,-2.2823,-2.2823,-2.266,-2.2676,-2.2688,-2.2708,-2.2718,-2.273,-2.2746,-2.2752,-2.2769,-2.2789,-2.2789,-2.2812,-2.2824,-2.2848,-2.2857,-2.2874,-2.2867,-2.2875,-2.2876,-2.2878,-2.2878,-2.2825,-2.2878,-2.2878,-2.2878,-2.2877,-2.2877,0,-2.271,-2.2718,-2.2736,-2.2754,-2.2769,-2.2763,-2.2777,-2.279,-2.2809,-2.2822,-2.2837,-2.2861,-2.288,-2.2888,-2.2906,-2.2918,-2.2916,-2.2923,-2.2921,-2.2922,-2.2885,-2.2877,-2.2924,-2.2924,-2.2924,-2.2924,-2.2924,-2.2924,-2.2738,-2.2765,-2.2767,-2.2798,-2.2806,-2.2827,-2.2836,-2.2847,-2.2857,-2.2883,-2.2898,-2.2903,-2.2914,-2.2933,-2.2949,-2.2951,-2.2957,-2.2965,-2.2965,-2.293,-2.2925,-2.292,-2.2913,-2.2967,-2.2967,-2.3,-2.3001,-2.3001]}]]